Weather History for Cincinnati, OH

Change the Weather History Date:

Tuesday, December 24, 2013

  Actual Average Record
Temperature  
Mean Temperature 21 °F -  
Max Temperature 27 °F 39 °F 69 °F (1964)
Min Temperature 15 °F 23 °F -10 °F (1989)
Degree Days  
Heating Degree Days 44    
Moisture  
Dew Point 12 °F    
Average Humidity 70    
Maximum Humidity 81    
Minimum Humidity 55    
Precipitation  
Precipitation 0.00 in - - ()
Sea Level Pressure  
Sea Level Pressure 30.51 in    
Wind  
Wind Speed 7 mph (WNW)    
Max Wind Speed 14 mph    
Max Gust Speed 20 mph    
Visibility 8 miles    
Events Snow    
Averages and records for this station are not official NWS values.
T = Trace of Precipitation, MM = Missing Value Source: NWS Daily Summary

Daily Weather History Graph

Daily Weather History Graph

Search for Another Location

Airport:

Trip Planner

Search our weather history database for the weather conditions in past years. The results will help you decide how hot, cold, wet, or windy it might be!

Date:

Astronomy

Dec. 24, 2013 Rise Set
Actual Time 7:54 AM EST 5:20 PM EST
Civil Twilight 7:24 AM EST 5:50 PM EST
Nautical Twilight 6:51 AM EST 6:23 PM EST
Astronomical Twilight 6:18 AM EST 6:56 PM EST
Moon No Moon Rise 11:51 AM EST (12/24)
Length of Visible Light 10h 25m
Length of Day
9h 25m
Waning Gibbous, 59% of the Moon is Illuminated
Dec 24
Waning Gibbous
Dec 25
Last Quarter
Jan 1
New
Jan 7
First Quarter
Jan 15
Full

Hourly Weather History & Observations

Time (EST) Temp. Windchill Dew Point Humidity Pressure Visibility Wind Dir Wind Speed Gust Speed Precip Events Conditions
12:27 AM 26.6 °F 19.1 °F 17.6 °F 69% 30.40 in 10.0 mi West 6.9 mph - N/A   Overcast
12:53 AM 27.0 °F 18.7 °F 17.1 °F 66% 30.42 in 10.0 mi West 8.1 mph - N/A   Overcast
1:53 AM 27.0 °F 17.3 °F 19.0 °F 72% 30.41 in 5.0 mi West 10.4 mph - 0.00 in Snow Light Snow
2:18 AM 26.6 °F 20.0 °F 21.2 °F 80% 30.40 in 2.5 mi West 5.8 mph - 0.00 in Snow Light Snow
2:26 AM 26.6 °F 20.0 °F 21.2 °F 80% 30.40 in 3.0 mi West 5.8 mph - 0.00 in Snow Light Snow
2:33 AM 26.6 °F 18.2 °F 21.2 °F 80% 30.40 in 4.0 mi West 8.1 mph - 0.00 in Snow Light Snow
2:53 AM 25.0 °F 16.3 °F 19.9 °F 81% 30.43 in 3.0 mi NW 8.1 mph - 0.00 in Snow Light Snow
3:05 AM 24.8 °F 15.3 °F 17.6 °F 74% 30.41 in 6.0 mi NW 9.2 mph - 0.00 in Snow Light Snow
3:53 AM 24.1 °F 15.2 °F 19.0 °F 81% 30.43 in 4.0 mi NW 8.1 mph - 0.00 in Snow Light Snow
4:05 AM 23.0 °F 12.4 °F 17.6 °F 80% 30.42 in 3.0 mi WNW 10.4 mph 16.1 mph 0.00 in Snow Light Snow
4:53 AM 21.9 °F 10.4 °F 15.1 °F 75% 30.45 in 7.0 mi NW 11.5 mph 19.6 mph 0.00 in Snow Light Snow
5:38 AM 19.4 °F 6.6 °F 10.4 °F 68% 30.45 in 10.0 mi NW 12.7 mph 19.6 mph 0.00 in   Scattered Clouds
5:53 AM 18.0 °F 6.1 °F 8.1 °F 65% 30.48 in 10.0 mi NW 10.4 mph - 0.00 in   Clear
6:53 AM 16.0 °F 4.4 °F 8.1 °F 71% 30.51 in 10.0 mi NW 9.2 mph 16.1 mph N/A   Clear
7:53 AM 15.1 °F 3.3 °F 7.0 °F 70% 30.53 in 10.0 mi NW 9.2 mph - N/A   Scattered Clouds
8:07 AM 15.8 °F 5.1 °F 6.8 °F 68% 30.52 in 10.0 mi NW 8.1 mph - N/A   Mostly Cloudy
8:24 AM 15.8 °F 5.1 °F 6.8 °F 68% 30.52 in 10.0 mi WNW 8.1 mph 19.6 mph N/A   Scattered Clouds
8:33 AM 15.8 °F 5.1 °F 6.8 °F 68% 30.53 in 10.0 mi WNW 8.1 mph 17.3 mph N/A   Mostly Cloudy
8:53 AM 15.1 °F 0.5 °F 7.0 °F 70% 30.56 in 10.0 mi West 13.8 mph - N/A   Mostly Cloudy
9:53 AM 16.0 °F 5.3 °F 7.0 °F 68% 30.58 in 10.0 mi West 8.1 mph - N/A   Mostly Cloudy
10:53 AM 17.1 °F 6.6 °F 8.1 °F 68% 30.60 in 10.0 mi West 8.1 mph - N/A   Mostly Cloudy
11:53 AM 19.9 °F 10.1 °F 9.0 °F 62% 30.59 in 10.0 mi WNW 8.1 mph - N/A   Mostly Cloudy
12:53 PM 19.9 °F 12.1 °F 9.0 °F 62% 30.59 in 10.0 mi West 5.8 mph - N/A   Mostly Cloudy
1:00 PM 19.4 °F 11.5 °F 8.6 °F 63% 30.57 in 10.0 mi NW 5.8 mph - N/A   Scattered Clouds
1:53 PM 21.9 °F 15.7 °F 9.0 °F 58% 30.58 in 10.0 mi Variable 4.6 mph - N/A   Scattered Clouds
2:53 PM 21.9 °F - 9.0 °F 58% 30.58 in 10.0 mi Calm Calm - N/A   Clear
3:53 PM 23.0 °F 17.0 °F 9.0 °F 55% 30.58 in 10.0 mi SW 4.6 mph - N/A   Clear
4:53 PM 23.0 °F - 9.0 °F 55% 30.59 in 10.0 mi Calm Calm - N/A   Clear
5:53 PM 21.9 °F - 8.1 °F 55% 30.58 in 10.0 mi Calm Calm - N/A   Clear
6:53 PM 21.0 °F - 10.9 °F 65% 30.59 in 10.0 mi Calm Calm - N/A   Clear
7:53 PM 19.9 °F - 12.0 °F 71% 30.59 in 10.0 mi Calm Calm - N/A   Clear
8:53 PM 17.1 °F 10.0 °F 10.9 °F 77% 30.58 in 10.0 mi NE 4.6 mph - N/A   Clear
9:53 PM 19.0 °F - 12.9 °F 77% 30.58 in 10.0 mi Calm Calm - N/A   Clear
10:53 PM 17.1 °F - 12.0 °F 81% 30.58 in 10.0 mi Calm Calm - N/A   Clear
11:53 PM 18.0 °F - 12.0 °F 78% 30.55 in 10.0 mi Calm Calm - N/A   Clear